• Processing (Info)

  • MPEC 2024-P158 : 2024 PK4

    The following Minor Planet Electronic Circular may be linked-to from your own Web pages, but must not otherwise be redistributed electronically.

    A form allowing access to any MPEC is at the bottom of this page.


    Read MPEC 2024-P157 Read MPEC 2024-P159


    M.P.E.C. 2024-P158                              Issued 2024 August 13, 22:20 UT
    
         The Minor Planet Electronic Circulars contain information on unusual
             minor planets, routine data on comets and natural satellites,
             and occasional editorial announcements.  They are published
        on behalf of Division F of the International Astronomical Union by the
              Minor Planet Center, Smithsonian Astrophysical Observatory,
                              Cambridge, MA 02138, U.S.A.
    			  
                 Prepared using the Tamkin Foundation Computer Network
    
                                  MPC@CFA.HARVARD.EDU
                URL https://www.minorplanetcenter.net/    ISSN 1523-6714
    
                                    2024 PK4                                 
    
    
    Observations:
         K24P04K*KC2024 08 11.84692 21 32 24.19 +06 34 02.7          19.2 GXEP158L51
         K24P04K KC2024 08 11.84806 21 32 24.58 +06 33 35.0          19.1 GXEP158L51
         K24P04K KC2024 08 11.84913 21 32 24.88 +06 33 10.1          19.5 GXEP158L51
         K24P04K KB2024 08 11.89274 21 32 42.869+06 15 31.86         20.3 GXEP158L38
         K24P04K KC2024 08 11.89407721 32 43.27 +06 15 20.0          20.0 GXEP158L01
         K24P04K KC2024 08 11.89508121 32 43.67 +06 14 55.3          20.1 GXEP158L01
         K24P04K KC2024 08 11.89609321 32 43.94 +06 14 32.5          19.7 GXEP158L01
         K24P04K KC2024 08 11.89801921 32 44.71 +06 13 46.8          19.8 GXEP158L01
         K24P04K KB2024 08 11.90197 21 32 46.058+06 11 53.77         20.0 GXEP158L38
         K24P04K KB2024 08 11.90225 21 32 46.133+06 11 47.33         19.8 GXEP158L38
         K24P04K KC2024 08 11.90312 21 32 45.27 +06 11 34.8          19.6 GXEP158G02
         K24P04K KB2024 08 11.90576 21 32 47.318+06 10 24.56         19.8 GXEP158L38
         K24P04K KC2024 08 11.90777 21 32 46.88 +06 09 43.8          19.8 GXEP158G02
         K24P04K KB2024 08 11.91281 21 32 49.730+06 07 38.17         19.7 GXEP158L38
         K24P04K KC2024 08 11.91282 21 32 48.59 +06 07 43.8          19.7 GXEP158G02
         K24P04K KC2024 08 11.91454921 32 51.905+06 06 57.10         19.7 GVEP158J95
         K24P04K KC2024 08 11.91721421 32 52.798+06 05 54.74         19.0 GVEP158J95
         K24P04K KC2024 08 11.91984621 32 53.724+06 04 52.32         19.6 GVEP158J95
         K24P04K KC2024 08 11.92641 21 32 54.94 +06 02 24.8          20.3 GVEP158D48
         K24P04K KC2024 08 11.93729 21 32 58.53 +05 58 08.2          19.9 GVEP158D48
         K24P04K KB2024 08 11.93757821 33 00.21 +05 58 14.0          19.9 GXEP158I93
         K24P04K KB2024 08 11.94650821 33 03.16 +05 54 44.0          19.6 GXEP158I93
         K24P04K KB2024 08 11.95537421 33 06.08 +05 51 15.5          20.2 GXEP158I93
         K24P04K KB2024 08 12.00095 21 33 14.62 +05 33 23.0          19.8 GVEP158M75
         K24P04K KB2024 08 12.00942 21 33 17.44 +05 30 03.4          19.9 GVEP158M75
         K24P04K KB2024 08 12.01656 21 33 19.82 +05 27 15.7          19.9 GVEP158M75
         K24P04K KC2024 08 12.16541921 34 32.26 +04 30 29.0          19.8 GXEP158858
         K24P04K KC2024 08 12.17244721 34 34.57 +04 27 48.9          19.5 GXEP158858
         K24P04K KC2024 08 12.17909521 34 36.73 +04 25 17.5          19.9 GXEP158858
         K24P04K KC2024 08 12.18416321 34 35.08 +04 23 11.1          19.9 GVEP158H21
         K24P04K KC2024 08 12.18609121 34 35.70 +04 22 27.1          19.7 GVEP158H21
         K24P04K KC2024 08 12.18802121 34 36.31 +04 21 43.5          19.6 GVEP158H21
         K24P04K KC2024 08 12.19380721 34 38.12 +04 19 31.7          19.8 GVEP158H21
         K24P04K KB2024 08 12.81888 21 38 24.83 +00 32 05.2          19.5 GXEP158M45
         K24P04K KB2024 08 12.82048 21 38 25.28 +00 31 31.4          19.5 GXEP158M45
         K24P04K KB2024 08 12.82261 21 38 25.95 +00 30 47.0          19.8 GXEP158M45
         K24P04K KB2024 08 12.82528 21 38 26.72 +00 29 51.2          19.7 GXEP158M45
         K24P04K KC2024 08 12.83697 21 38 32.19 +00 25 54.6          20.1 VqEP158126
         K24P04K KC2024 08 12.84923 21 38 35.86 +00 21 38.5          20.1 VqEP158126
         K24P04K KC2024 08 12.87354421 38 43.10 +00 13 11.1          19.1 GVEP158203
         K24P04K KC2024 08 12.89652521 38 49.82 +00 05 17.5          19.5 GVEP158203
         K24P04K KB2024 08 12.90632 21 38 51.950+00 01 40.73         19.0 GXEP158L38
         K24P04K KB2024 08 12.91623 21 38 55.18 -00 01 38.8          19.1 GXEP158K35
         K24P04K KB2024 08 12.91670 21 38 54.948-00 01 52.57         18.5 GXEP158L38
         K24P04K KB2024 08 12.92137 21 38 56.65 -00 03 25.1          19.4 GXEP158K35
         K24P04K KB2024 08 12.92681 21 38 58.24 -00 05 16.8          19.6 GXEP158K35
         K24P04K KB2024 08 12.93547 21 39 00.71 -00 08 13.7          19.3 GXEP158K35
         K24P04K KB2024 08 13.02069 21 39 24.47 -00 36 58.0                VEP158204
         K24P04K KB2024 08 13.03114 21 39 27.36 -00 40 29.5          19.6 GVEP158204
         K24P04K KC2024 08 13.87444 21 43 55.29 -05 06 56.2          19.6 GXEP158L51
         K24P04K KC2024 08 13.87617 21 43 55.67 -05 07 26.5          19.3 GXEP158L51
         K24P04K KC2024 08 13.87802 21 43 56.11 -05 07 59.7          19.9 GXEP158L51
    
    Observer details:
    126 Monte Viseggi.  Observers L. Sannino, A. Mancuso, S. Mercanti, S. Mugnos,
        D. Agnetti.  Measurers L. Sannino, A. Mancuso.  0.41-m f/5.3 reflector +
        CCD.
    203 GiaGa Observatory.  Observer G. Galli.  0.36-m f/5.76 Schmidt-Cassegrain +
        CCD.
    204 Schiaparelli Observatory.  Observer L. Buzzi.  0.84-m f/3.5 reflector +
        CMO.
    858 Tebbutt Observatory, Edgewood.  Observer F. B. Zoltowski.  0.51-m f/8.1
        Schmidt-Cassegrain + CCD.
    D48 Niederbexbach Observatory.  Observer W. Wiedemann.  0.28-m f/4.3 Schmidt-
        Cassegrain + CCD.
    G02 KYSUCE Observatory, Kysucke Nove Mesto.  Observer M. Urbanik.  0.40-m
        f/6.8 Corrected Dall-Kirkham + CCD.
    H21 Astronomical Research Observatory, Westfield.  Observer R. Holmes.
        Measurers T. Linder, R. Holmes.  0.76-m f/3.0 astrograph + CCD.
    I93 St Pardon de Conques.  Observer F. Losse.  0.40-m f/3.7 reflector + CMO.
    J95 Great Shefford.  Observer P. Birtwhistle.  0.41-m f/6.3 Schmidt-Cassegrain
        + CCD.
    K35 Huenfelden.  Observer P. Remmel.  0.36-m f/1.9 reflector + CMO.
    L01 Visnjan Observatory, Tican.  Observers K. Korlevic, L. Ivanovic, E.
        Matika, I. Novotny, I. Paleka, E. Pettarin, L. Poropat, M. Spoler.
        Measurer M. Spoler.  1.0-m f/2.9 reflector + CCD.
    L38 Gartensternwarte Schafsweide, Sehlde.  Observer A. Opitz.  0.35-m f/5.2
        Newton + CMO.
    L51 MARGO, Nauchnyi.  Observer G. Borisov.  0.50-m f/1.9 reflector + CCD.
    M45 Starhopper Observatory, Sfantu Gheorghe.  Observer F. Ursache.  0.41-m
        f/7.5 reflector + CMO.
    M75 Online observatory, Peschany.  Observer A. V. Skachedub.  0.28-m f/2.2
        reflector + CMO.
    
    Orbital elements:
    2024 PK4                                                 Earth MOID = 0.0357 AU
    Epoch 2024 Oct. 17.0 TT = JDT 2460600.5                 Veres                   
    M  92.18670              (2000.0)            P               Q                  
    n   0.72237931     Peri.  104.75099     -0.36289674     +0.92314965             
    a   1.2301531      Node   143.16103     -0.91547016     -0.32780096             
    e   0.2692499      Incl.   12.21808     -0.17383998     -0.20085134             
    P   1.36           H   25.75          G   0.15           U   7                  
    Residuals in seconds of arc
    240811 L51  0.2+  0.4-    240811 D48  0.1+  0.4+    240812 M45  0.1-  0.5-
    240811 L51  0.3+  1.0-    240811 D48  1.0-  0.1+    240812 126  1.1-  1.9+
    240811 L51  0.6-  0.4-    240811 I93  0.2+  0.1+    240812 126  1.5-  0.3+
    240811 L38  0.7+  0.5-    240811 I93  0.1-  0.1+    240812 203  0.1-  0.2-
    240811 L01  0.8-  0.2+    240811 I93  0.3-  0.1-    240812 203  0.5+  0.3+
    240811 L01  0.2+  0.7-    240812 M75  1.3+  1.2+    240812 L38  0.3-  0.2+
    240811 L01  0.9-  0.4+    240812 M75  0.4+  0.1-    240812 K35  0.2-  0.5+
    240811 L01  0.9+  0.3+    240812 M75  0.4-  0.7-    240812 L38  0.7-  0.3+
    240811 L38  0.7+  0.4-    240812 858  0.1+  0.2+    240812 K35  0.4-  0.3-
    240811 L38  0.4+  0.3-    240812 858  0.0   0.2+    240812 K35  0.1+  0.4-
    240811 G02  0.5-  0.5-    240812 858  0.1-  0.1+    240812 K35  0.1-  0.2+
    240811 L38  0.0   0.0     240812 H21  0.0   0.1-    240813 204  0.0   0.4+
    240811 G02 (0.1+  1.6-)   240812 H21  0.2+  0.2-    240813 204  0.0   0.1+
    240811 L38  0.2-  0.1+    240812 H21  0.3+  0.1+    240813 L51  0.5+  0.5-
    240811 G02 (0.2+  2.3-)   240812 H21  0.2+  0.0     240813 L51  0.0   0.0
    240811 J95  0.1+  0.2-    240812 M45  0.1+  0.3+    240813 L51  0.0   0.4-
    240811 J95  0.3-  0.3+    240812 M45  0.3-  0.2-
    240811 J95  0.1-  0.1-    240812 M45  0.3+  0.3-
    
    Ephemeris:
    2024 PK4                 a,e,i = 1.23, 0.27, 12                  q = 0.8989
    Date    TT    R. A. (2000) Decl.     Delta      r    Elong.  Phase     V
    2024 07 14    11 32 55.6 +63 34 46   0.1409  0.9480    57.4   115.4    25.9
    ...
    2024 07 29    14 44 32.6 +75 36 02   0.06665 0.9973    72.5   103.8    23.7
    ...
    2024 08 06    20 22 53.1 +52 42 10   0.03806 1.0280   110.0    68.0    21.1
    ...
    2024 08 12    21 33 19.9 +05 36 21   0.04147 1.0523   159.4    19.8    19.9
    2024 08 13    21 39 19.4 -00 27 21   0.04456 1.0564   165.6    13.8    19.9
    2024 08 14    21 44 29.3 -05 41 10   0.04812 1.0605   171.0     8.6    19.9
    ...
    2024 08 20    22 04 36.6 -24 31 41   0.07559 1.0858   167.8    11.3    21.0
    ...
    2024 08 28    22 17 24.5 -34 05 05   0.1197  1.1202   155.6    21.9    22.4
    ...
    2024 09 12    22 28 50.2 -38 40 49   0.2137  1.1851   143.5    30.3    24.1
    
    M. P. C. Staff               (C) Copyright 2024 MPC           M.P.E.C. 2024-P158
    


    Read MPEC 2024-P157 Read MPEC 2024-P159


    MPEC number:

    Enter an MPEC number in one of the following forms:

    • 1997-B01 (the full form)
    • J97B01 (the packed version of the full form)
    • B01 (the abbreviated form)